Location: Unspecified
(51.0000°N, 0.0000°E)
Time: 00:53:45
(UTC+00:00)

FENGYUN 1C DEB - Visible Passes

Search period start: 04 April 2026 00:00
Search period end: 14 April 2026 00:00
Orbit: 758 x 806 km, 98.6° (Epoch: 29 March)

Date Brightness Start Highest point End Pass type
(mag) Time Alt. Az. Time Alt. Az. Time Alt. Az.
4 Apr ? 19:10:31 10° ESE 19:14:58 29° ENE 19:19:28 10° N visible
4 Apr ? 20:49:57 16° S 20:54:02 53° W 20:59:14 10° NNW visible
5 Apr ? 20:17:39 14° SSE 20:22:10 87° ENE 20:27:30 10° NNW visible
5 Apr ? 21:58:59 10° SW 22:02:13 16° W 22:05:27 10° NW visible
6 Apr ? 19:45:22 10° SE 19:50:26 51° ENE 19:55:34 10° N visible
6 Apr ? 21:25:55 12° SSW 21:30:00 28° W 21:34:34 10° NW visible
7 Apr ? 19:14:18 10° ESE 19:18:51 31° ENE 19:23:26 10° N visible
7 Apr ? 20:53:37 14° S 20:57:57 50° W 21:03:08 10° NNW visible
8 Apr ? 20:21:18 13° SSE 20:26:03 87° WSW 20:31:24 10° NNW visible
8 Apr ? 22:03:10 10° WSW 22:06:10 15° W 22:09:10 10° NW visible
9 Apr ? 19:49:11 10° SE 19:54:18 54° ENE 19:59:29 10° N visible
9 Apr ? 21:29:33 10° SSW 21:33:56 27° W 21:38:23 10° NW visible
10 Apr ? 19:18:03 10° ESE 19:22:41 32° ENE 19:27:22 10° N visible
10 Apr ? 20:57:15 12° S 21:01:51 47° W 21:06:59 10° NNW visible
11 Apr ? 20:24:57 12° SSE 20:29:56 82° WSW 20:35:16 10° NNW visible
11 Apr ? 22:07:22 10° WSW 22:10:05 14° W 22:12:49 10° NW visible
12 Apr ? 19:52:58 10° SSE 19:58:09 58° ENE 20:03:22 10° N visible
12 Apr ? 21:33:31 10° SSW 21:37:50 25° W 21:42:10 10° NW visible
13 Apr ? 19:21:47 10° SE 19:26:31 34° ENE 19:31:16 10° N visible
13 Apr ? 21:00:53 11° S 21:05:43 44° W 21:10:48 10° NNW visible
